K6BIV Weather Reports


time (UTC)temp
C
wind
direction
speed
KPH
gust
KPH
rain 1hr
cm
rain 24hr
cm
rain mn
cm
humidity
%
barometer
mb
20260506163026 16 105 3.2 16.1 0.00 0.00 0.00 68 1020.7
20260506161528 16 134 9.7 16.1 0.00 0.00 0.00 69 1020.8
20260506160020 15 128 8.0 17.7 0.00 0.00 0.00 70 1020.8
20260506151528 15 121 3.2 12.9 0.00 0.00 0.00 74 1021.0
20260506150031 14 129 3.2 11.3 0.00 0.00 0.00 74 1020.9
20260506144523 14 114 3.2 11.3 0.00 0.00 0.00 75 1020.9
20260506134521 13 127 3.2 11.3 0.00 0.00 0.00 75 1020.2
20260506133024 13 121 3.2 12.9 0.00 0.00 0.00 75 1020.1
20260506130014 13 128 0.0 11.3 0.00 0.00 0.00 76 1020.0
20260506124518 13 136 1.6 9.7 0.00 0.00 0.00 75 1020.0
20260506123021 13 116 1.6 14.5 0.00 0.00 0.00 75 1019.9
20260506121522 13 118 4.8 12.9 0.00 0.00 0.00 75 1019.9
20260506120026 13 111 3.2 12.9 0.00 0.00 0.00 75 1019.8
20260506113034 13 117 1.6 11.3 0.00 0.00 0.00 76 1019.5
20260506111521 13 135 1.6 12.9 0.00 0.00 0.00 76 1019.5
20260506104513 13 143 1.6 9.7 0.00 0.00 0.00 75 1019.3
20260506103020 13 115 1.6 14.5 0.00 0.00 0.00 75 1019.4
20260506101503 13 120 1.6 4.8 0.00 0.00 0.00 76 1019.3
20260506100009 13 109 1.6 11.3 0.00 0.00 0.00 76 1019.3
20260506094512 13 126 3.2 11.3 0.00 0.00 0.00 76 1019.2
20260506093013 13 127 1.6 9.7 0.00 0.00 0.00 76 1019.2
20260506091521 13 140 1.6 11.3 0.00 0.00 0.00 76 1019.2
20260506090005 13 145 3.2 11.3 0.00 0.00 0.00 76 1019.2
20260506084507 13 130 3.2 14.5 0.00 0.03 0.00 76 1019.1
20260506083012 13 128 3.2 11.3 0.00 0.05 0.00 76 1019.1
20260506081516 13 143 4.8 14.5 0.00 0.08 0.00 76 1019.1
20260506073008 13 125 1.6 4.8 0.00 0.18 0.00 78 1018.8
20260506071515 13 120 1.6 11.3 0.00 0.20 0.00 78 1018.6
20260506061512 13 113 1.6 12.9 0.00 0.30 0.20 76 1018.0
20260506044522 14 117 3.2 14.5 0.00 0.38 0.20 72 1017.5
20260506043022 14 137 4.8 14.5 0.00 0.43 0.20 71 1017.5
20260506041522 15 141 3.2 14.5 0.00 0.48 0.20 71 1017.2
20260506040028 15 141 6.4 17.7 0.00 0.53 0.20 70 1017.1
20260506034520 15 101 4.8 19.3 0.00 0.53 0.20 70 1016.9
20260506033017 15 96 3.2 16.1 0.00 0.53 0.20 69 1016.7
20260506031519 15 143 4.8 12.9 0.00 0.53 0.20 68 1016.3
20260506030034 16 104 3.2 9.7 0.00 0.53 0.20 68 1016.3
20260506024552 16 104 3.2 16.1 0.00 0.53 0.20 68 1016.2
20260506023027 16 57 4.8 12.9 0.00 0.53 0.20 67 1016.0
20260506021518 16 96 3.2 17.7 0.00 0.53 0.20 67 1016.0
20260506020019 17 88 4.8 17.7 0.00 0.53 0.20 66 1015.9
20260506014524 17 115 1.6 11.3 0.00 0.53 0.20 66 1015.7
20260506013039 17 59 4.8 11.3 0.00 0.53 0.20 65 1015.6
20260506011527 18 90 6.4 16.1 0.00 0.53 0.20 64 1015.5
20260506010023 18 125 1.6 14.5 0.00 0.53 0.20 62 1015.5
20260506004524 19 93 3.2 22.5 0.00 0.53 0.20 61 1015.4
20260506003028 19 125 3.2 20.9 0.00 0.53 0.20 60 1015.4
20260505234506 19 105 4.8 14.5 0.00 0.53 0.20 61 1015.3
20260505233010 18 31 6.4 17.7 0.00 0.53 0.20 64 1015.6
20260505231508 18 122 4.8 16.1 0.00 0.53 0.20 65 1015.6
20260505230020 18 98 3.2 14.5 0.00 0.53 0.20 65 1015.6
20260505223010 18 86 1.6 9.7 0.00 0.53 0.20 65 1015.6
20260505221516 18 136 3.2 9.7 0.00 0.53 0.20 64 1015.7
20260505220012 18 110 3.2 8.0 0.00 0.53 0.20 64 1015.7
20260505213011 18 134 4.8 12.9 0.00 0.53 0.20 65 1015.8
20260505211513 17 145 4.8 12.9 0.00 0.53 0.20 65 1015.8
20260505210012 17 128 4.8 12.9 0.00 0.53 0.20 67 1015.9
20260505204517 17 136 1.6 17.7 0.00 0.53 0.20 65 1015.9
20260505203013 17 96 3.2 11.3 0.00 0.53 0.20 66 1016.1
20260505200027 16 123 3.2 17.7 0.00 0.53 0.20 70 1016.2
20260505194519 16 130 6.4 16.1 0.00 0.53 0.20 69 1016.2
20260505193015 16 134 3.2 16.1 0.00 0.53 0.20 70 1016.1
20260505190016 16 142 4.8 20.9 0.00 0.53 0.20 69 1016.1
20260505184523 16 138 3.2 16.1 0.00 0.53 0.20 71 1016.2
20260505183015 15 130 3.2 20.9 0.00 0.53 0.20 74 1016.1
20260505181518 15 102 8.0 22.5 0.00 0.53 0.20 74 1016.0
20260505174505 15 130 3.2 19.3 0.00 0.53 0.20 77 1015.8
20260505173032 14 92 6.4 17.7 0.00 0.53 0.20 77 1015.6
20260505171518 14 101 4.8 14.5 0.00 0.53 0.20 79 1015.6
20260505170025 13 124 3.2 17.7 0.00 0.53 0.20 80 1015.7